Time,TemperatureF,DewpointF,PressureIn,WindDirection,WindDirectionDegrees,WindSpeedMPH,WindSpeedGustMPH,Humidity,HourlyPrecipIn,Conditions,Clouds,dailyrainin,SoftwareType,DateUTC
2013-06-11 00:05:00,68.3,60.7,29.93,North,0,0.0,0.0,71,0.00,NA,NA,0.01,meteo_script,2013-06-11 05:05:00,
2013-06-11 00:35:00,67.3,60.0,29.93,North,0,0.0,0.0,72,0.00,NA,NA,0.00,meteo_script,2013-06-11 05:35:00,
2013-06-11 01:05:00,66.4,59.8,29.94,North,0,0.0,0.0,74,0.00,NA,NA,0.00,meteo_script,2013-06-11 06:05:00,
2013-06-11 01:35:00,65.7,59.3,29.94,North,0,0.0,0.0,74,0.00,NA,NA,0.00,meteo_script,2013-06-11 06:35:00,
2013-06-11 02:05:00,65.2,59.0,29.94,North,0,0.0,0.0,75,0.00,NA,NA,0.00,meteo_script,2013-06-11 07:05:00,
2013-06-11 02:35:00,64.5,58.8,29.94,North,0,0.0,0.0,77,0.00,NA,NA,0.00,meteo_script,2013-06-11 07:35:00,
2013-06-11 03:05:00,64.0,58.5,29.95,North,0,0.0,0.0,78,0.00,NA,NA,0.00,meteo_script,2013-06-11 08:05:00,
2013-06-11 03:35:00,63.3,58.2,29.95,North,0,0.0,0.0,79,0.00,NA,NA,0.00,meteo_script,2013-06-11 08:35:00,
2013-06-11 04:05:00,62.9,58.2,29.97,North,0,0.0,0.0,80,0.00,NA,NA,0.00,meteo_script,2013-06-11 09:05:00,
2013-06-11 04:35:00,62.6,58.0,29.95,North,0,0.0,0.0,81,0.00,NA,NA,0.00,meteo_script,2013-06-11 09:35:00,
2013-06-11 05:05:00,62.3,57.7,29.95,North,0,0.0,0.0,81,0.00,NA,NA,0.00,meteo_script,2013-06-11 10:05:00,
2013-06-11 05:35:00,62.0,57.6,29.95,North,0,0.0,0.0,81,0.00,NA,NA,0.00,meteo_script,2013-06-11 10:35:00,
2013-06-11 06:05:00,61.4,57.1,29.95,West,272,0.0,1.0,82,0.00,NA,NA,0.00,meteo_script,2013-06-11 11:05:00,
2013-06-11 06:35:00,61.4,57.4,29.97,North,0,0.0,0.0,83,0.00,NA,NA,0.00,meteo_script,2013-06-11 11:35:00,
2013-06-11 07:05:00,61.8,57.8,29.97,North,0,0.0,0.0,83,0.00,NA,NA,0.00,meteo_script,2013-06-11 12:05:00,
2013-06-11 07:35:00,63.0,58.9,29.98,SW,223,0.0,1.0,83,0.00,NA,NA,0.00,meteo_script,2013-06-11 12:35:00,
2013-06-11 08:05:00,69.5,62.0,29.97,West,265,0.6,2.0,71,0.00,NA,NA,0.00,meteo_script,2013-06-11 13:05:00,
2013-06-11 08:35:00,73.2,63.3,29.98,West,276,1.3,2.0,65,0.00,NA,NA,0.00,meteo_script,2013-06-11 13:35:00,
2013-06-11 09:05:00,75.5,64.1,29.97,West,277,1.3,3.0,61,0.00,NA,NA,0.00,meteo_script,2013-06-11 14:05:00,
2013-06-11 09:35:00,76.7,64.5,29.97,West,277,0.4,1.0,59,0.00,NA,NA,0.00,meteo_script,2013-06-11 14:35:00,
2013-06-11 10:05:00,78.0,65.5,29.96,West,260,2.8,4.0,58,0.00,NA,NA,0.00,meteo_script,2013-06-11 15:05:00,
2013-06-11 10:35:00,78.4,65.0,29.96,West,264,0.1,1.0,56,0.00,NA,NA,0.00,meteo_script,2013-06-11 15:35:00,
2013-06-11 11:05:00,78.0,65.2,29.96,West,271,1.0,2.0,57,0.00,NA,NA,0.00,meteo_script,2013-06-11 16:05:00,
2013-06-11 11:35:00,79.9,65.8,29.96,WSW,258,0.1,3.0,55,0.00,NA,NA,0.00,meteo_script,2013-06-11 16:35:00,
2013-06-11 12:05:00,81.0,66.0,29.96,WSW,255,0.7,2.0,52,0.00,NA,NA,0.00,meteo_script,2013-06-11 17:05:00,
2013-06-11 12:35:00,79.9,65.9,29.97,West,260,0.7,1.0,55,0.00,NA,NA,0.00,meteo_script,2013-06-11 17:35:00,
2013-06-11 13:05:00,81.0,65.6,29.96,WSW,252,1.2,2.0,52,0.00,NA,NA,0.00,meteo_script,2013-06-11 18:05:00,
2013-06-11 13:35:00,83.3,66.8,29.93,South,186,3.8,7.0,50,0.00,NA,NA,0.00,meteo_script,2013-06-11 18:35:00,
2013-06-11 14:05:00,81.6,65.7,29.93,SW,223,1.9,3.0,51,0.00,NA,NA,0.00,meteo_script,2013-06-11 19:05:00,
2013-06-11 14:35:00,82.5,65.4,29.95,West,268,3.5,6.0,48,0.00,NA,NA,0.00,meteo_script,2013-06-11 19:35:00,
2013-06-11 15:05:00,82.8,65.4,29.94,West,277,1.9,3.0,48,0.00,NA,NA,0.00,meteo_script,2013-06-11 20:05:00,
2013-06-11 15:35:00,83.4,66.8,29.92,SSW,213,2.7,4.0,49,0.00,NA,NA,0.00,meteo_script,2013-06-11 20:35:00,
2013-06-11 16:05:00,81.1,64.9,29.86,SSW,205,3.5,9.0,50,0.00,NA,NA,0.00,meteo_script,2013-06-11 21:05:00,
2013-06-11 16:35:00,81.2,66.2,29.91,West,277,0.0,1.0,53,0.00,NA,NA,0.00,meteo_script,2013-06-11 21:35:00,
2013-06-11 17:05:00,82.9,66.3,29.89,West,260,5.7,9.0,49,0.00,NA,NA,0.00,meteo_script,2013-06-11 22:05:00,
2013-06-11 17:35:00,82.7,66.2,29.92,West,268,1.2,4.0,50,0.00,NA,NA,0.00,meteo_script,2013-06-11 22:35:00,
2013-06-11 18:05:00,81.1,65.8,29.89,West,274,1.5,3.0,52,0.00,NA,NA,0.00,meteo_script,2013-06-11 23:05:00,
2013-06-11 18:35:00,80.8,65.9,29.89,North,0,0.0,0.0,53,0.00,NA,NA,0.00,meteo_script,2013-06-11 23:35:00,
2013-06-11 19:05:00,80.5,66.4,29.90,West,266,0.8,3.0,55,0.00,NA,NA,0.00,meteo_script,2013-06-12 00:05:00,
2013-06-11 19:35:00,80.8,67.1,29.90,West,263,1.3,3.0,56,0.00,NA,NA,0.00,meteo_script,2013-06-12 00:35:00,
2013-06-11 20:05:00,79.4,66.8,29.91,West,266,0.2,1.0,58,0.00,NA,NA,0.00,meteo_script,2013-06-12 01:05:00,
2013-06-11 20:35:00,78.7,66.7,29.92,North,0,0.0,0.0,60,0.00,NA,NA,0.00,meteo_script,2013-06-12 01:35:00,
2013-06-11 21:05:00,77.5,66.3,29.91,North,0,0.0,0.0,62,0.00,NA,NA,0.00,meteo_script,2013-06-12 02:05:00,
2013-06-11 21:35:00,75.8,65.8,29.91,North,0,0.0,0.0,65,0.00,NA,NA,0.00,meteo_script,2013-06-12 02:35:00,
2013-06-11 22:05:00,74.8,65.8,29.89,North,0,0.0,0.0,67,0.00,NA,NA,0.00,meteo_script,2013-06-12 03:05:00,
2013-06-11 22:35:00,73.4,65.7,29.91,North,0,0.0,0.0,71,0.00,NA,NA,0.00,meteo_script,2013-06-12 03:35:00,
2013-06-11 23:05:00,73.3,65.8,29.91,North,0,0.0,0.0,72,0.00,NA,NA,0.00,meteo_script,2013-06-12 04:05:00,
2013-06-11 23:35:00,72.5,65.3,29.92,North,0,0.0,0.0,73,0.00,NA,NA,0.00,meteo_script,2013-06-12 04:35:00,